Location: Newark
(23.1300°N, 73.6109°E)
Time: 17:23:59
(UTC+00:00)

AO-7 - Pass Details

Date: 16 July 2020
Orbit: 1440 x 1458 km, 101.8° (Epoch: 05 August)

Event Time Altitude Azimuth Distance (km) Brightness Sun altitude
Rises 22:32:45 0° 19° (NNE) 4,563 ? -24.0°
Reaches altitude 10° 22:35:33 10° 21° (NNE) 3,582 ? -23.5°
Maximum altitude 22:43:54 72° 105° (ESE) 1,520 ? -22.0°
Enters shadow 22:51:15 14° 188° (S) 3,239 ? -20.6°
